Regional Weather Roundup
Issued by NWS

Home | Current Version | Previous Version | Graphics & Text | Print | Product List | Glossary On
Versions: 1 2 3 4 5 6 7 8 9 10 11 12 13 14 15 16 17 18 19 20 21 22 23 24 25 26 27 28 29 30 31 32 33 34 35 36 37 38 39 40 41 42 43 44 45 46 47 48 49
000
ASUS45 KTFX 292110
RWRMT
MONTANA REGIONAL WEATHER ROUNDUP
NATIONAL WEATHER SERVICE GREAT FALLS MT
300 PM MDT MON JUN 29 2015

NOTE: "FAIR" INDICATES FEW OR NO CLOUDS BELOW 12000 FEET WITH NO
SIGNIFICANT WEATHER AND/OR OBSTRUCTIONS TO VISIBILITY.

MTZ001>007-043-292200-
WEST OF THE DIVIDE

CITY           SKY/WX    TMP DP  RH WIND       PRES   REMARKS
KALISPELL      CLOUDY    87  54  32 S7        30.02R
MISSOULA       CLOUDY    89  49  25 NW13      30.05F
BUTTE          LGT RAIN  85  47  26 SE14G43   30.16F
MULLAN PASS    CLOUDY    72  55  55 VRB3      30.24F
DEER LODGE       N/A     84  54  34 W7        30.16R
EUREKA           N/A     90  55  31 SE6       29.98F
HAMILTON         N/A     90  52  27 N14       30.03F
PLAINS           N/A     82  60  47 SW1       30.01F
RONAN            N/A     80  62  54 N5        30.11R
THOMPSON FALLS   N/A     83  58  42 NE3       30.02F
$$

MTZ008-052>055-292200-
SOUTHWEST MONTANA

CITY           SKY/WX    TMP DP  RH WIND       PRES   REMARKS
BOZEMAN        SUNNY     97  49  19 N10       30.04F HX  94
DILLON         PTSUNNY   77  51  40 SW37G55   30.14R THUNDER HAZE
W YELLOWSTONE  PTSUNNY   84  43  23 N5        30.26F
THREE FORKS      N/A     97  45  16 E5        30.03F HX  93
$$

MTZ009-010-012-014-046-048-049-054-292200-
EAST SLOPES AND CENTRAL MONTANA

CITY           SKY/WX    TMP DP  RH WIND       PRES   REMARKS
CUT BANK       CLOUDY    83  54  36 S6        30.06F
GREAT FALLS    CLOUDY    94  49  21 VRB3      30.02F HX  90
MALMSTROM AFB  PTSUNNY   95  50  22 NW8       30.01F HX  91
HELENA         PTSUNNY   98  51  20 N6        30.01F HX  95
CONRAD           N/A     87  58  37 W9        30.07F
$$

MTZ011-013-016-021-045-047-050-051-292200-
NORTH CENTRAL MONTANA

CITY           SKY/WX    TMP DP  RH WIND       PRES   REMARKS
HAVRE          CLOUDY    94  51  23 E16G23    29.96F HX  91
LEWISTOWN      PTSUNNY   94  52  24 E14       30.08F HX  91
CHINOOK          N/A     95  48  20 E8        29.97F HX  91
FORT BENTON      N/A     97  52  21 E8        29.96F HX  94
$$

MTZ017>020-022>027-061-062-292200-
NORTHEAST MONTANA

CITY           SKY/WX    TMP DP  RH WIND       PRES   REMARKS
GLASGOW        SUNNY     98  43  15 N9        29.96F HX  94
JORDAN           N/A     98  40  13 N9        30.00F HX  93
SIDNEY         SUNNY     97  52  21 NW15      29.93F HX  94
WOLF POINT     SUNNY     99  48  17 N15G21    29.94F HX  95
MALTA            N/A     96  51  21 NE6       29.95F HX  93
PLENTYWOOD       N/A     90  55  31 NE9G17    29.96S
POPLAR           N/A     91  57  31 NW7       29.94F HX  90
SCOBEY           N/A     90  55  30 NW9       29.98F
$$

MTZ028>42-056>058-292200-
SOUTHCENTRAL AND SOUTHEAST MONTANA

CITY           SKY/WX    TMP DP  RH WIND       PRES   REMARKS
BAKER          MOSUNNY   91  57  31 W15       30.02F
BILLINGS       MOSUNNY   95  38  13 E6        30.08F HX  90
LIVINGSTON     SUNNY     97  47  18 NE17G23   30.07F HX  93
MILES CITY     SUNNY     98  46  17 N7G22     29.98F HX  94
BIG TIMBER       N/A     93  48  21 E13       30.09F HX  90
EKALAKA          N/A     90  52  27 W12       30.05F
FORSYTH          N/A     97  52  21 SW9       29.99F HX  94
LAUREL           N/A     96  47  18 NE7       30.05F HX  92
ROUNDUP          N/A     97  42  15 CALM      29.97F HX  93
$$

REGIONAL REPORTS...DAKOTAS

CITY           SKY/WX    TMP DP  RH WIND       PRES   REMARKS
WILLISTON      PTSUNNY   95  58  28 W7        29.92F HX  94
MINOT          PTSUNNY   88  58  36 NW9       29.92F
DICKINSON      MOSUNNY   89  62  40 SW6       29.97F
BEACH          FAIR      93  55  27 W13       29.99F HX  91
CROSBY         FAIR      86  57  37 NE8       29.96F
BISMARCK       MOSUNNY   92  54  27 NW9       29.94F HX  90
GRAND FORKS    CLOUDY    77  64  64 N12       29.87S
FARGO          SUNNY     77  62  59 NW12      29.86S
BUFFALO SD       N/A     92  57  30 W13       29.98F HX  90
RAPID CITY     SUNNY     89  55  31 VRB6      30.07F
$$

REGIONAL REPORTS...WYOMING/IDAHO/WASHINGTON

CITY           SKY/WX    TMP DP  RH WIND       PRES   REMARKS
GILLETTE       SUNNY     88  50  27 N7        30.15F
SHERIDAN       MOSUNNY   93  52  24 VRB6      30.12F HX  90
BUFFALO WY     MOSUNNY   88  49  25 N9        30.21S
CODY           SUNNY     91  45  19 E8        30.17F
YELLOWSTONE LA   N/A     80  38  22 VRB3      30.40F
IDAHO FALLS    MOSUNNY   93  66  40 N5        30.09F HX  96
SALMON         MOSUNNY   97  46  17 N5        29.96F HX  93
BOISE          MOSUNNY  102  55  20 NW12      29.94F HX 100
SPOKANE        LGT RAIN  85  60  42 NW5       29.98R
$$

REGIONAL REPORTS...ALBERTA

CITY           SKY/WX    TMP DP  RH WIND       PRES   REMARKS
EDMONTON       MOSUNNY   73  52  46 S15       30.06F
CALGARY        CLOUDY    70  54  56 SE6       30.13S
LETHBRIDGE     CLOUDY    79  61  53 NE10      30.04F
MEDICINE HAT   CLOUDY    88  52  29 NE17G25   30.02F
WATERTON GATE    N/A     79  57  47 NE8         N/A
MILK RIVER       N/A     82  61  47 NE10        N/A
ONEFOUR          N/A     93  39  15 SE12        N/A
$$

REGIONAL REPORTS...SASKATCHEWAN

CITY           SKY/WX    TMP DP  RH WIND       PRES   REMARKS
SWIFT CURRENT  CLOUDY    81  45  28 NE14      30.07S HAZE
REGINA         CLOUDY    77  48  36 N14G21    30.00S SMOKE
SASKATOON      SMOKE     73  52  46 N8        30.09R VSB 3/4
CYPRESS HILLS    N/A     82  46  28 E9          N/A
VAL MARIE        N/A     91  50  24 NE13        N/A
ROCKGLEN         N/A     88  48  25 NW14G20     N/A
ASSINIBOIA       N/A     72  59  64 S9          N/A
$$



USA.gov is the U.S. government's official web portal to all federal, state and local government web resources and services.